[[{"header":{"parameterUnit":"m.s-1","parameterCategory":2,"la1":30.2992,"la2":30.254,"lo1":-89.0895,"lo2":-89.0443,"dy":0.0025,"dx":0.0025,"nx":19,"ny":19,"refTime":"2026-05-11T21:00:00:Z","depth":"0","parameterNumber":2,"parameterNumberName":"U-component_of_CURRENTS"},"data":[0,0,0,-0.0919,-0.0917,-0.0835,-0.0835,-0.0757,-0.0757,0,0,0,0,0,0,0,0,0,0,0,-0.0954,-0.0954,-0.0919,-0.0917,-0.0835,-0.0835,-0.0757,-0.0757,0,0,0,0,0,0,0,0,0,0,0,-0.0954,-0.0954,-0.0953,-0.0917,-0.0835,-0.0835,-0.0758,-0.0812,0,0,0,0,0,0,0,0,0,0,-0.0889,-0.0925,-0.0954,-0.0953,-0.0916,-0.0835,-0.0834,-0.0815,-0.0809,-0.0803,0,-0.0794,0,-0.0771,-0.0752,-0.0752,0,0,0,-0.0916,-0.093,-0.0899,-0.0953,-0.0916,-0.0835,-0.0872,-0.0811,-0.0805,-0.0796,-0.0792,-0.0789,-0.077,-0.0752,-0.0752,-0.073,-0.073,0,0,-0.0921,-0.0946,-0.0904,-0.0895,-0.0899,-0.0874,-0.0869,-0.0807,-0.0808,-0.0792,-0.0787,-0.0768,-0.0751,-0.0751,-0.073,-0.073,0,0,0,-0.0934,-0.095,-0.092,-0.0899,-0.088,-0.0872,-0.0866,-0.0811,-0.0799,-0.0786,-0.0768,-0.0751,-0.075,-0.0729,-0.073,-0.0778,0,0,0,-0.0937,-0.0957,-0.0922,-0.0937,-0.0882,-0.0842,-0.0872,-0.0803,-0.0795,-0.0768,-0.0751,-0.075,-0.0729,-0.073,-0.0777,-0.0798,0,0,0,-0.0957,-0.0959,-0.0949,-0.0939,-0.0901,-0.0843,-0.0827,-0.0801,-0.0784,-0.0752,-0.0749,-0.0729,-0.0729,-0.0775,-0.0795,-0.0809,0,0,0,-0.0987,-0.0987,-0.095,-0.0947,-0.0902,-0.0871,-0.0827,-0.0799,-0.0775,-0.0751,-0.0729,-0.073,-0.0774,-0.0793,-0.0808,-0.0843,-0.0854,0,0,-0.1005,-0.099,-0.0988,-0.0953,-0.0934,-0.0882,-0.0871,-0.0818,-0.0783,-0.075,-0.0749,-0.0777,-0.0795,-0.0809,-0.0878,-0.0888,0,0,0,-0.1006,-0.1006,-0.0994,-0.0973,-0.0936,-0.0907,-0.0854,-0.0833,-0.0799,-0.0771,-0.0776,-0.0785,-0.0793,-0.0811,-0.0819,-0.0856,-0.0733,-0.0732,-0.0732,-0.107,-0.104,-0.1038,-0.0998,-0.0978,-0.0925,-0.0907,-0.0869,-0.083,-0.0826,-0.0824,-0.0868,-0.0888,-0.0894,-0.0932,-0.0823,-0.0823,-0.0823,-0.0823,-0.1108,-0.1114,-0.1071,-0.1059,-0.1019,-0.1005,-0.0952,-0.0924,-0.0901,-0.0866,-0.0871,-0.086,-0.0906,-0.0943,-0.0826,-0.0826,-0.0825,-0.0825,-0.0825,-0.1165,-0.1164,-0.1143,-0.1119,-0.1099,-0.1049,-0.1036,-0.0992,-0.0949,-0.0953,-0.0952,-0.0951,-0.0983,-0.0949,-0.0949,-0.0949,-0.095,-0.095,-0.095,-0.1241,-0.1216,-0.1215,-0.118,-0.1166,-0.1141,-0.1083,-0.1068,-0.1039,-0.1008,-0.1008,-0.101,-0.0906,-0.09,-0.0953,-0.0952,-0.0952,-0.0951,-0.0951,-0.1331,-0.1301,-0.1299,-0.1286,-0.1242,-0.1225,-0.1176,-0.1152,-0.1128,-0.1129,-0.1117,-0.1032,-0.1017,-0.101,-0.1006,-0.1083,-0.1083,-0.1083,-0.1083,-0.1394,-0.1377,-0.1369,-0.1348,-0.1321,-0.1266,-0.1271,-0.1239,-0.1212,-0.1206,-0.1193,-0.1184,-0.1177,-0.1169,-0.1159,-0.1158,-0.1271,-0.1272,-0.1272,-0.1453,-0.1431,-0.1444,-0.1392,-0.1351,-0.1311,-0.131,-0.1311,-0.1288,-0.1282,-0.1242,-0.1234,-0.122,-0.1205,-0.1188,-0.1171,-0.1166,0,0]},{"header":{"parameterUnit":"m.s-1","parameterCategory":2,"la1":30.2992,"la2":30.254,"lo1":-89.0895,"lo2":-89.0443,"dy":0.0025,"dx":0.0025,"nx":19,"ny":19,"refTime":"2026-05-11T21:00:00:Z","depth":"0","parameterNumber":3,"parameterNumberName":"V-component_of_CURRENTS"},"data":[0,0,0,-0.1899,-0.1898,-0.1872,-0.1872,-0.1821,-0.1821,0,0,0,0,0,0,0,0,0,0,0,-0.1904,-0.1904,-0.1899,-0.1898,-0.1872,-0.1872,-0.1821,-0.1821,0,0,0,0,0,0,0,0,0,0,0,-0.1904,-0.1904,-0.1904,-0.1898,-0.1872,-0.1872,-0.1821,-0.1843,0,0,0,0,0,0,0,0,0,0,-0.1869,-0.1868,-0.1904,-0.1904,-0.1898,-0.1872,-0.1872,-0.1844,-0.1841,-0.1831,0,-0.1833,0,-0.1831,-0.1818,-0.1818,0,0,0,-0.1887,-0.187,-0.1879,-0.1904,-0.1898,-0.1872,-0.1881,-0.1842,-0.184,-0.1828,-0.1832,-0.183,-0.1831,-0.1818,-0.1817,-0.1802,-0.1802,0,0,-0.1889,-0.1882,-0.1881,-0.1877,-0.1898,-0.1882,-0.188,-0.1841,-0.1831,-0.1832,-0.1829,-0.183,-0.1817,-0.1817,-0.1801,-0.1802,0,0,0,-0.19,-0.1883,-0.1892,-0.1879,-0.1879,-0.1881,-0.1879,-0.1832,-0.184,-0.1829,-0.1829,-0.1817,-0.1817,-0.1801,-0.1801,-0.1805,0,0,0,-0.1901,-0.1891,-0.1893,-0.1886,-0.188,-0.1855,-0.1871,-0.1843,-0.1838,-0.1829,-0.1817,-0.1816,-0.1801,-0.1801,-0.1804,-0.179,0,0,0,-0.1904,-0.189,-0.1893,-0.1886,-0.1882,-0.1856,-0.186,-0.1841,-0.1839,-0.1818,-0.1816,-0.1801,-0.1801,-0.1804,-0.179,-0.1772,0,0,0,-0.189,-0.188,-0.1893,-0.1885,-0.1882,-0.1877,-0.186,-0.1841,-0.1823,-0.1817,-0.1801,-0.1801,-0.1804,-0.179,-0.1773,-0.1763,-0.1761,0,0,-0.1869,-0.1877,-0.1876,-0.1888,-0.1885,-0.1879,-0.1867,-0.1836,-0.1826,-0.181,-0.181,-0.1805,-0.179,-0.1772,-0.1782,-0.1779,0,0,0,-0.1866,-0.1865,-0.1867,-0.187,-0.1874,-0.1867,-0.1848,-0.1841,-0.1823,-0.182,-0.181,-0.1801,-0.179,-0.1785,-0.1783,-0.178,-0.1803,-0.1803,-0.1803,-0.1783,-0.182,-0.1821,-0.1858,-0.1857,-0.1854,-0.1846,-0.1835,-0.1828,-0.1825,-0.1809,-0.1803,-0.1799,-0.1797,-0.1796,-0.1823,-0.1823,-0.1823,-0.1823,-0.1757,-0.1772,-0.1805,-0.1826,-0.1838,-0.1833,-0.1835,-0.1832,-0.1813,-0.1817,-0.1806,-0.1795,-0.1795,-0.1794,-0.1823,-0.1823,-0.1823,-0.1823,-0.1823,-0.1717,-0.1738,-0.1761,-0.1802,-0.1805,-0.1819,-0.1815,-0.1813,-0.1804,-0.1796,-0.1776,-0.1776,-0.1768,-0.1786,-0.1786,-0.1786,-0.1786,-0.1786,-0.1786,-0.1677,-0.1709,-0.1742,-0.1778,-0.1791,-0.1799,-0.1796,-0.179,-0.1772,-0.1766,-0.1766,-0.1767,-0.1791,-0.1784,-0.1784,-0.1784,-0.1784,-0.1785,-0.1785,-0.1675,-0.1691,-0.174,-0.1762,-0.1796,-0.1816,-0.18,-0.1782,-0.1754,-0.1745,-0.1734,-0.175,-0.1741,-0.1743,-0.1735,-0.1722,-0.1722,-0.1722,-0.1722,-0.1666,-0.168,-0.1756,-0.1792,-0.1813,-0.1827,-0.185,-0.184,-0.1776,-0.1742,-0.1707,-0.1724,-0.1726,-0.1717,-0.172,-0.1712,-0.1693,-0.1693,-0.1693,-0.1677,-0.1701,-0.1753,-0.1802,-0.1827,-0.1854,-0.1907,-0.1927,-0.1798,-0.1692,-0.1705,-0.1706,-0.1733,-0.1737,-0.1725,-0.1729,-0.1717,0,0]}],[{"header":{"parameterUnit":"m.s-1","parameterCategory":2,"la1":30.2992,"la2":30.254,"lo1":-89.0895,"lo2":-89.0443,"dy":0.0025,"dx":0.0025,"nx":19,"ny":19,"refTime":"2026-05-11T21:00:00:Z","depth":"2","parameterNumber":2,"parameterNumberName":"U-component_of_CURRENTS"},"data":[0,0,0,0.0298,0.0298,0.0254,0.0254,0.0232,0.0232,0,0,0,0,0,0,0,0,0,0,0,0.0313,0.0313,0.0298,0.0298,0.0254,0.0254,0.0232,0.0232,0,0,0,0,0,0,0,0,0,0,0,0.0313,0.0313,0.0313,0.0297,0.0254,0.0254,0.0232,0.0255,0,0,0,0,0,0,0,0,0,0,0.0292,0.0299,0.0313,0.0313,0.0297,0.0254,0.0254,0.0255,0.0253,0.0264,0,0.026,0,0.025,0.0232,0.0232,0,0,0,0.029,0.0301,0.0295,0.0313,0.0297,0.0255,0.0272,0.0254,0.0252,0.0261,0.026,0.0259,0.025,0.0232,0.0232,0.0203,0.0203,0,0,0.0292,0.0299,0.0296,0.0294,0.0291,0.0273,0.027,0.0252,0.025,0.026,0.0258,0.0249,0.0232,0.0232,0.0203,0.0203,0,0,0,0.0304,0.0301,0.0294,0.0295,0.0287,0.0272,0.0269,0.025,0.025,0.0258,0.0249,0.0232,0.0232,0.0204,0.0203,0.0164,0,0,0,0.0305,0.0308,0.0295,0.0298,0.0287,0.0263,0.0268,0.0251,0.0248,0.0249,0.0232,0.0232,0.0204,0.0203,0.0166,0.0143,0,0,0,0.0314,0.0309,0.0307,0.0299,0.0284,0.0263,0.026,0.025,0.0244,0.0232,0.0232,0.0204,0.0204,0.0167,0.0146,0.0093,0,0,0,0.0318,0.0301,0.0307,0.029,0.0284,0.0255,0.026,0.0231,0.0217,0.0232,0.0204,0.0203,0.0168,0.0148,0.0096,0.0009,-0.0009,0,0,0.0295,0.0298,0.0289,0.0293,0.0264,0.026,0.0222,0.0205,0.0211,0.0212,0.0211,0.0165,0.0147,0.0094,-0.0034,-0.0051,0,0,0,0.0281,0.027,0.0265,0.0251,0.0241,0.0212,0.0198,0.0191,0.0167,0.0202,0.0161,0.015,0.0118,0.0071,0.0057,0.02,0.02,0.02,0.02,0.0214,0.0227,0.0207,0.0211,0.0198,0.0174,0.015,0.0136,0.0149,0.0128,0.0115,0.0044,-0.0006,-0.0018,0.0115,0.0114,0.0114,0.0114,0.0114,0.0163,0.0148,0.0166,0.0147,0.0139,0.0108,0.0093,0.0087,0.0045,0.0075,0.0046,0.0028,-0.0035,0.0111,0.0111,0.0112,0.0112,0.0112,0.0113,0.0107,0.0106,0.0102,0.0085,0.0058,0.005,0.0,-0.0001,-0.0002,-0.0027,-0.01,-0.01,0.001,-0.0056,-0.0057,-0.0057,-0.0057,-0.0058,-0.0058,0.0048,0.0053,0.0023,0.0017,-0.0002,-0.0032,-0.0069,-0.0105,-0.0161,-0.016,-0.0161,-0.0014,-0.0008,-0.0,-0.0063,-0.0062,-0.0061,-0.0061,-0.0061,-0.0013,-0.0015,-0.0056,-0.0078,-0.0102,-0.0148,-0.0171,-0.0287,-0.0323,-0.037,-0.024,-0.0233,-0.0235,-0.0224,-0.0222,-0.0338,-0.0338,-0.0338,-0.0339,-0.0062,-0.0061,-0.0125,-0.0161,-0.0184,-0.0203,-0.038,-0.0517,-0.0527,-0.0525,-0.0517,-0.0495,-0.048,-0.0492,-0.0475,-0.0477,-0.066,-0.066,-0.0661,-0.0101,-0.0118,-0.0175,-0.0203,-0.0218,-0.0274,-0.0491,-0.071,-0.0727,-0.0672,-0.056,-0.0362,-0.0305,-0.0291,-0.0286,-0.0269,-0.0261,0,0]},{"header":{"parameterUnit":"m.s-1","parameterCategory":2,"la1":30.2992,"la2":30.254,"lo1":-89.0895,"lo2":-89.0443,"dy":0.0025,"dx":0.0025,"nx":19,"ny":19,"refTime":"2026-05-11T21:00:00:Z","depth":"2","parameterNumber":3,"parameterNumberName":"V-component_of_CURRENTS"},"data":[0,0,0,0.013,0.0129,0.0082,0.0082,0.0103,0.0104,0,0,0,0,0,0,0,0,0,0,0,0.0139,0.0139,0.013,0.0129,0.0082,0.0082,0.0103,0.0104,0,0,0,0,0,0,0,0,0,0,0,0.014,0.0139,0.0138,0.0129,0.0082,0.0082,0.0103,0.012,0,0,0,0,0,0,0,0,0,0,0.0156,0.0136,0.0139,0.0138,0.0128,0.0082,0.0082,0.012,0.0119,0.0146,0,0.0124,0,0.0117,0.0106,0.0107,0,0,0,0.0135,0.0136,0.0138,0.0138,0.0128,0.0082,0.0105,0.0119,0.0118,0.0145,0.0124,0.0125,0.0117,0.0107,0.0107,0.0117,0.0117,0,0,0.0138,0.0123,0.0138,0.0137,0.0099,0.0106,0.0103,0.0117,0.0103,0.0124,0.0125,0.0117,0.0107,0.0107,0.0118,0.0117,0,0,0,0.0141,0.0124,0.0124,0.0136,0.0122,0.0105,0.0101,0.0102,0.0105,0.0125,0.0118,0.0107,0.0108,0.0118,0.0117,0.0082,0,0,0,0.0143,0.0126,0.0125,0.0114,0.0121,0.0097,0.0085,0.0103,0.0105,0.0117,0.0107,0.0108,0.0118,0.0118,0.0084,0.0079,0,0,0,0.0145,0.0126,0.0119,0.0114,0.0093,0.0096,0.0099,0.0103,0.0101,0.0107,0.0108,0.0118,0.0118,0.0085,0.0081,0.0061,0,0,0,0.0136,0.0128,0.0117,0.0108,0.0093,0.0097,0.0098,0.0089,0.009,0.0107,0.0118,0.0118,0.0085,0.0082,0.0062,0.0063,0.0057,0,0,0.0133,0.0126,0.0127,0.0118,0.012,0.0105,0.01,0.0092,0.0095,0.0121,0.0121,0.0083,0.0081,0.0061,0.0037,0.0032,0,0,0,0.0133,0.0127,0.0128,0.0116,0.0119,0.0102,0.0094,0.0089,0.0074,0.0092,0.0084,0.0084,0.0073,0.0075,0.0071,0.0115,0.0115,0.0115,0.0116,0.006,0.0092,0.0097,0.0122,0.0115,0.0098,0.0086,0.0074,0.0078,0.0055,0.0055,0.0018,0.002,0.0017,0.005,0.005,0.005,0.0049,0.0049,0.0054,0.0061,0.0081,0.0099,0.0088,0.0071,0.0065,0.0047,0.0027,0.0032,0.0022,0.0038,0.0011,0.0047,0.0047,0.0047,0.0048,0.0048,0.0048,0.0009,0.0027,0.0039,0.006,0.0043,0.0035,0.0012,0.0001,-0.0006,-0.0019,-0.0024,-0.0023,0.0,-0.004,-0.004,-0.004,-0.004,-0.004,-0.004,-0.0045,-0.0014,-0.0009,0.002,0.0012,-0.0011,-0.003,-0.0038,-0.0052,-0.0054,-0.0054,-0.0012,-0.0009,-0.0004,-0.0042,-0.0042,-0.0042,-0.0041,-0.0041,-0.0076,-0.0076,-0.0055,-0.0053,-0.0036,-0.0076,-0.007,-0.0098,-0.0097,-0.0098,-0.0069,-0.0067,-0.0053,-0.005,-0.0046,-0.0092,-0.0092,-0.0092,-0.0092,-0.0126,-0.0111,-0.0109,-0.0091,-0.0079,-0.0101,-0.019,-0.0149,-0.0087,0.0002,-0.0002,0.0024,0.0023,0.0044,0.0045,0.0052,0.0031,0.0032,0.0032,-0.0159,-0.0151,-0.0166,-0.0125,-0.0096,-0.0156,-0.029,-0.0189,0.0103,0.0042,0.007,-0.0094,-0.0066,-0.0063,-0.0038,-0.0033,-0.0024,0,0]}],[{"header":{"parameterUnit":"m.s-1","parameterCategory":2,"la1":30.2992,"la2":30.254,"lo1":-89.0895,"lo2":-89.0443,"dy":0.0025,"dx":0.0025,"nx":19,"ny":19,"refTime":"2026-05-11T21:00:00:Z","depth":"4","parameterNumber":2,"parameterNumberName":"U-component_of_CURRENTS"},"data":[0,0,0,-0.0541,-0.0545,-0.0759,-0.076,-0.102,-0.1022,0,0,0,0,0,0,0,0,0,0,0,-0.0478,-0.0479,-0.0541,-0.0546,-0.0759,-0.076,-0.102,-0.1022,0,0,0,0,0,0,0,0,0,0,0,-0.0477,-0.0479,-0.0481,-0.0546,-0.0759,-0.076,-0.1019,-0.0864,0,0,0,0,0,0,0,0,0,0,-0.0659,-0.06,-0.0478,-0.0481,-0.0547,-0.0759,-0.076,-0.0857,-0.0873,-0.0916,0,-0.0958,0,-0.0989,-0.1038,-0.1039,0,0,0,-0.0556,-0.0586,-0.064,-0.0481,-0.0549,-0.0758,-0.0666,-0.0866,-0.0885,-0.0939,-0.0962,-0.0971,-0.0993,-0.104,-0.1041,-0.1149,-0.1148,0,0,-0.0544,-0.0522,-0.0626,-0.0652,-0.0617,-0.0659,-0.0672,-0.0878,-0.0905,-0.0963,-0.0978,-0.0997,-0.1042,-0.1043,-0.1149,-0.1149,0,0,0,-0.0503,-0.0513,-0.0563,-0.0641,-0.0677,-0.0665,-0.068,-0.0896,-0.0912,-0.098,-0.1,-0.1043,-0.1046,-0.115,-0.1149,-0.099,0,0,0,-0.0497,-0.0489,-0.0557,-0.0547,-0.0673,-0.0791,-0.0694,-0.0898,-0.0922,-0.0999,-0.1043,-0.1048,-0.1151,-0.115,-0.0996,-0.0963,0,0,0,-0.0466,-0.0485,-0.0512,-0.0545,-0.0631,-0.0788,-0.0817,-0.0904,-0.0934,-0.1039,-0.1049,-0.1151,-0.115,-0.1001,-0.0971,-0.096,0,0,0,-0.0431,-0.0475,-0.0513,-0.058,-0.0629,-0.0749,-0.0816,-0.0905,-0.0987,-0.1044,-0.1151,-0.1149,-0.1003,-0.0976,-0.0965,-0.0899,0,0,0,-0.0456,-0.0478,-0.0516,-0.0554,-0.0634,-0.072,-0.0803,-0.0921,-0.0976,-0.1086,-0.109,-0.0994,-0.0972,-0.0961,-0.0812,0,0,0,0,-0.0504,-0.0517,-0.0556,-0.0618,-0.0715,-0.077,-0.0892,-0.0909,-0.0939,-0.1018,-0.1009,-0.1001,-0.0999,-0.0972,-0.1142,-0.1142,-0.1142,-0.1142,-0.1143,-0.0408,-0.0485,-0.0541,-0.0634,-0.0708,-0.0807,-0.0833,-0.0874,-0.0933,-0.0879,-0.0879,-0.0779,-0.0741,-0.0873,-0.0872,-0.0871,-0.0871,-0.087,-0.087,-0.0381,-0.0411,-0.0504,-0.0566,-0.0639,-0.0691,-0.0766,-0.0758,-0.0745,-0.0771,-0.0775,-0.0815,-0.0855,-0.0858,-0.086,-0.0862,-0.0863,-0.0864,-0.0865,-0.0276,-0.0316,-0.0352,-0.044,-0.0478,-0.0569,-0.0565,-0.0601,-0.0611,-0.0582,-0.0596,-0.0708,-0.0716,-0.0569,-0.0569,-0.0569,-0.0568,-0.0568,-0.0568,-0.0151,-0.0219,-0.0231,-0.0315,-0.0331,-0.0349,-0.0426,-0.0407,-0.0446,-0.0447,-0.0539,-0.068,-0.069,-0.0702,-0.0564,-0.0565,-0.0565,-0.0566,-0.0566,-0.0081,-0.0084,-0.0113,-0.0127,-0.018,-0.0212,-0.0287,-0.0287,-0.0269,-0.0247,-0.0406,-0.0415,-0.0491,-0.0506,-0.0515,-0.0317,-0.0315,-0.0314,0,0.0001,-0.0019,-0.0041,-0.0062,-0.0061,-0.0147,-0.0108,-0.0111,-0.0184,-0.0221,-0.0241,-0.0423,-0.043,-0.0519,-0.053,-0.0541,0,0,0,0.0035,0.0021,0.0026,-0.0012,-0.0028,-0.0055,-0.0097,-0.0097,-0.0216,-0.0124,-0.0281,-0.0289,-0.0344,-0.0553,-0.0693,-0.0704,-0.0733,0,0]},{"header":{"parameterUnit":"m.s-1","parameterCategory":2,"la1":30.2992,"la2":30.254,"lo1":-89.0895,"lo2":-89.0443,"dy":0.0025,"dx":0.0025,"nx":19,"ny":19,"refTime":"2026-05-11T21:00:00:Z","depth":"4","parameterNumber":3,"parameterNumberName":"V-component_of_CURRENTS"},"data":[0,0,0,0.0118,0.0119,0.0193,0.0193,0.0282,0.0282,0,0,0,0,0,0,0,0,0,0,0,0.013,0.0131,0.0118,0.0119,0.0193,0.0193,0.0282,0.0282,0,0,0,0,0,0,0,0,0,0,0,0.0129,0.0131,0.0132,0.0119,0.0193,0.0193,0.0282,0.0229,0,0,0,0,0,0,0,0,0,0,0.0159,0.0191,0.013,0.0132,0.012,0.0192,0.0193,0.0227,0.0232,0.0244,0,0.0284,0,0.0266,0.0288,0.0288,0,0,0,0.0127,0.0187,0.0177,0.0133,0.012,0.0192,0.0162,0.023,0.0236,0.0252,0.0285,0.0287,0.0268,0.0288,0.0288,0.0298,0.0298,0,0,0.0123,0.0165,0.0173,0.0182,0.0176,0.0159,0.0164,0.0234,0.0274,0.0285,0.0289,0.0269,0.0289,0.0289,0.0299,0.0298,0,0,0,0.0106,0.0163,0.0152,0.0179,0.0183,0.0161,0.0167,0.0272,0.0261,0.0289,0.027,0.0289,0.029,0.0299,0.0299,0.0251,0,0,0,0.0104,0.015,0.0151,0.0179,0.0182,0.0233,0.0204,0.0258,0.0263,0.027,0.0289,0.0291,0.03,0.0299,0.0254,0.0249,0,0,0,0.012,0.0152,0.0165,0.0181,0.0201,0.0231,0.0226,0.0259,0.0251,0.0288,0.0291,0.03,0.0299,0.0256,0.0252,0.0247,0,0,0,0.015,0.0159,0.0168,0.0147,0.02,0.013,0.0225,0.0228,0.0253,0.0289,0.03,0.0299,0.0256,0.0254,0.0248,0.0195,0,0,0,0.0149,0.0162,0.0125,0.0131,0.0032,0.0118,0.0062,0.0167,0.0241,0.0279,0.028,0.0253,0.0253,0.0247,0.0131,0,0,0,0,0.0109,0.01,0.0064,0.0025,-0.0019,-0.0012,0.0061,0.011,0.0202,0.0251,0.0244,0.0245,0.0244,0.0216,0.0293,0.0294,0.0294,0.0294,0.0294,0.018,0.0086,0.0013,-0.008,-0.0105,-0.009,-0.0062,0.0032,0.0109,0.0155,0.0199,0.0154,0.012,0.0182,0.0182,0.0182,0.0182,0.0182,0.0181,0.012,0.0056,-0.0025,-0.0106,-0.0133,-0.0131,-0.0109,-0.003,0.0055,0.0126,0.0127,0.0158,0.0177,0.0177,0.0178,0.0179,0.0179,0.0179,0.018,0.0148,0.0099,0.0066,-0.0047,-0.008,-0.0096,-0.0131,-0.0045,0.0045,0.0052,0.0075,0.0132,0.0147,0.0089,0.0089,0.0089,0.0089,0.0088,0.0088,0.0202,0.0136,0.011,0.0006,-0.0033,-0.0073,-0.0092,-0.0114,-0.0034,0.0027,0.0082,0.0124,0.0127,0.0142,0.0087,0.0088,0.0088,0.0088,0.0088,0.0176,0.0212,0.0144,0.0106,-0.0052,-0.0125,-0.0164,-0.0188,-0.0183,-0.0159,-0.0002,0.0003,0.0025,0.003,0.0043,-0.0042,-0.0043,-0.0044,0,0.0203,0.0193,0.0143,0.0049,-0.0087,-0.0185,-0.0263,-0.03,-0.0188,-0.0107,-0.0176,0.0005,0.0008,0.0033,0.0037,0.0051,0,0,0,0.0166,0.0168,0.0134,0.0052,-0.0115,-0.0236,-0.0285,-0.0259,-0.0164,-0.0266,-0.0066,-0.006,-0.0174,0.0084,0.013,0.0133,0.0161,0,0]}]]